Temperature
22 19 19 19 20 20 20 20 20 20 21 20 19 19 19 19 19 19 18 19 19 19 19 19 18 18 18 18 17 17 17 17 17 16 16 16 16 15 15 15 15 15 15 15
20 19 21 22 22 21 21 20 20 21 21 21 19 19 19 19 19 19 19 18 19 19 19 18 18 18 18 18 17 17 17 17 16 16 16 16 16 15 15 15 15 15 15 15
20 21 23 23 22 22 21 21 21 21 21 21 19 19 19 19 19 19 19 19 19 19 19 18 18 18 18 18 17 17 17 17 17 16 16 16 16 15 15 15 15 15 15 15
21 22 23 22 22 22 21 22 22 21 20 18 19 18 18 18 18 18 19 19 19 19 19 18 18 18 18 18 17 17 17 17 17 16 16 16 16 15 15 15 15 15 15 15
21 22 22 22 22 22 21 22 22 21 20 19 19 18 17 18 18 18 18 18 19 19 19 18 18 18 18 18 17 17 17 17 17 16 16 16 16 16 15 15 15 15 15 15
21 22 22 22 22 23 22 21 20 18 18 18 19 18 18 17 18 18 18 18 19 19 19 19 18 18 18 17 17 17 17 17 17 16 16 16 16 16 15 15 15 15 15 15
21 21 22 23 22 21 20 18 17 18 17 17 18 18 18 18 19 19 18 19 19 19 19 18 18 18 18 17 17 17 17 17 17 17 16 16 16 16 16 15 15 15 15 15
19 19 21 22 21 20 20 19 17 18 17 17 18 18 18 19 19 20 19 19 19 19 19 19 18 18 18 18 17 17 17 17 17 17 16 16 16 16 16 15 15 15 15 15
18 19 21 22 22 21 20 18 18 17 18 17 17 18 19 19 19 18 19 19 18 18 18 18 18 18 18 18 17 17 17 17 17 16 16 16 16 16 16 15 15 15 15 15
19 19 20 21 22 21 20 19 17 17 17 17 18 18 17 18 18 18 17 18 18 18 18 18 18 18 18 18 17 17 17 17 17 16 16 16 16 16 16 16 15 15 15 15
18 18 19 20 20 20 20 20 18 16 16 17 17 17 19 18 18 17 17 18 18 18 18 18 18 18 18 17 17 17 17 17 16 16 16 16 16 16 16 15 15 15 15 15
17 16 17 18 19 20 20 19 17 17 17 16 16 17 19 18 18 18 18 18 18 18 18 18 18 18 17 17 17 17 16 16 16 16 16 16 16 16 15 15 15 15 15 15
17 16 16 17 18 19 20 20 18 17 16 15 16 17 18 17 17 18 18 18 18 18 18 17 17 17 17 17 17 17 16 16 16 16 16 16 15 15 15 15 15 15 15 15
17 15 16 17 17 18 18 19 19 17 16 16 17 17 17 17 17 17 17 17 17 17 17 17 17 17 17 17 17 16 16 16 16 16 16 16 15 15 15 15 15 15 15 15
16 15 16 17 18 18 18 19 19 18 17 16 17 17 17 17 17 17 17 17 17 16 16 16 16 16 16 16 16 16 16 16 16 16 16 15 15 15 15 15 15 15 15 15
14 15 16 17 18 18 18 18 18 18 18 17 17 17 17 17 17 17 17 16 16 16 16 16 16 16 16 16 16 16 16 16 15 15 15 15 15 15 15 15 15 15 15 15
14 14 15 14 16 17 17 17 18 18 18 17 17 16 16 16 16 16 16 16 16 16 16 16 16 16 16 16 16 16 15 15 15 15 15 15 15 15 15 15 15 15 14 14
14 14 13 13 15 16 16 17 18 17 17 17 16 16 16 16 17 17 17 16 16 16 16 16 16 16 16 16 15 15 15 15 15 15 15 14 14 14 14 14 14 14 14 14
14 13 13 13 14 15 16 17 17 17 16 16 16 16 16 16 16 16 16 16 16 17 16 16 16 16 16 15 15 15 15 15 14 14 14 14 14 14 14 14 14 14 14 14
13 13 13 13 14 14 15 16 17 16 15 15 15 15 15 15 13 14 16 16 16 16 16 16 16 16 15 15 15 15 15 14 14 14 14 14 14 14 14 14 14 14 13 13
13 12 12 12 13 13 15 16 17 15 14 15 15 15 15 15 15 16 16 16 16 16 16 16 16 15 15 15 15 14 14 14 14 14 13 13 13 13 14 14 13 13 13 13
12 12 12 11 12 13 15 15 14 14 15 15 15 15 15 16 16 16 16 15 16 16 16 15 15 15 15 14 14 14 14 14 14 13 13 13 13 13 13 13 13 13 13 13
11 12 11 12 13 14 15 15 15 15 15 15 15 15 15 15 15 15 15 15 15 15 15 15 15 15 14 14 14 14 14 14 13 13 13 13 13 13 13 13 13 13 12 12
11 11 11 11 12 13 14 14 14 14 14 14 15 15 15 15 15 15 15 15 14 14 14 14 14 14 14 14 13 13 13 13 13 13 13 13 12 12 12 12 12 12 12 12
10 10 10 10 11 12 13 14 14 14 14 14 14 14 14 14 14 14 14 14 14 14 14 14 14 14 14 13 13 13 13 13 12 12 12 12 12 12 12 12 12 12 12 12
10 10 10 10 11 11 12 13 13 13 13 13 13 13 14 14 14 14 14 14 14 14 14 13 13 13 13 13 13 13 13 12 12 12 12 12 12 12 12 12 11 11 11 11
Wind_Speed
0 3 4 8 8 7 5 3 4 4 4 5 6 6 6 6 6 7 6 6 6 7 5 5 6 7 7 6 6 5 5 4 4 3 3 3 1 1 2 2 4 5 6 7
2 4 9 7 5 5 4 4 3 3 3 5 5 5 5 7 8 9 10 9 8 6 4 5 6 6 7 7 6 5 5 5 4 3 3 2 2 1 1 1 3 4 5 6
6 6 5 3 3 3 4 5 5 4 1 1 2 3 4 4 5 5 7 8 9 9 8 7 7 6 7 7 7 6 5 5 4 4 3 3 3 3 2 2 1 2 4 5
4 5 3 2 3 3 4 4 5 4 2 3 3 2 6 4 4 5 6 7 8 8 7 8 8 7 7 7 6 7 6 5 4 5 5 5 3 2 2 1 1 1 3 4
4 3 2 3 4 4 5 4 3 3 2 1 2 2 5 2 5 7 7 8 8 8 9 9 9 8 7 6 7 6 6 5 4 4 5 5 3 2 1 1 2 1 1 3
5 4 3 5 3 2 3 2 3 3 3 2 5 4 5 5 8 7 7 7 8 8 8 8 7 6 5 5 5 6 6 5 4 5 5 6 5 4 3 2 2 1 1 1
4 4 3 2 0 3 4 5 3 3 2 5 3 3 6 6 6 8 9 8 7 8 7 7 7 7 6 6 6 6 7 5 4 5 5 5 6 6 5 4 3 2 1 1
2 5 4 2 5 4 3 7 6 4 4 4 2 3 5 4 3 5 7 7 7 7 7 8 9 8 8 7 7 7 7 6 5 5 4 4 5 4 4 4 4 4 3 3
2 5 4 3 3 6 3 4 6 6 2 2 3 3 4 1 2 4 6 6 7 7 7 8 8 8 7 7 7 8 8 6 5 5 5 4 4 4 4 4 4 3 3 3
3 4 5 3 0 1 5 5 5 4 3 3 3 3 4 5 5 5 6 7 7 6 7 7 7 7 7 7 6 6 6 6 5 5 5 5 5 5 5 4 4 4 3 3
2 2 5 3 3 5 2 2 3 3 4 4 3 5 5 8 9 8 7 8 8 8 8 7 7 6 6 5 5 5 5 4 4 5 5 5 4 4 4 4 4 4 3 3
1 3 3 6 6 4 4 4 5 4 3 4 4 6 4 4 6 7 6 6 7 7 7 7 7 6 5 5 5 5 5 4 4 4 4 5 5 4 4 4 4 4 4 3
2 4 2 6 5 3 1 2 3 4 4 4 4 6 3 2 4 5 6 5 5 6 5 5 5 5 6 5 5 4 4 4 4 4 4 4 4 4 4 4 4 4 4 3
3 3 5 7 6 4 4 4 3 4 3 4 6 6 3 2 3 4 5 5 6 6 6 5 4 4 4 4 4 4 4 4 4 3 4 4 4 4 4 4 4 4 4 4
4 2 4 7 7 5 5 6 5 5 7 7 7 7 7 6 7 7 7 6 6 5 5 5 5 4 4 3 3 3 3 3 4 4 4 4 4 4 4 4 3 3 3 4
2 1 2 4 4 3 5 7 7 7 6 6 5 5 6 4 4 5 6 7 6 5 5 5 5 5 5 4 4 3 3 3 4 4 4 3 3 3 3 4 4 4 4 3
0 2 1 4 5 3 5 7 6 4 3 6 7 6 3 4 5 7 7 7 7 6 6 6 6 6 6 6 5 5 4 3 4 4 3 3 3 3 3 4 4 4 4 4
5 3 2 2 2 4 6 4 2 3 1 2 3 3 4 5 6 5 5 6 6 6 6 6 7 6 5 5 5 5 4 4 4 4 3 3 4 3 3 3 4 4 3 4
7 6 3 2 2 5 6 4 2 2 2 1 3 3 2 2 4 1 1 4 6 7 7 6 7 7 6 6 6 5 5 4 3 3 4 4 4 4 4 4 4 4 3 3
3 5 4 3 3 5 6 6 4 2 2 3 2 4 3 4 2 4 3 3 3 3 4 5 5 5 6 6 6 6 5 4 4 4 4 4 4 4 4 4 4 3 3 3
1 1 4 4 5 5 6 6 2 2 5 3 0 3 3 3 5 4 3 2 3 3 4 5 5 6 6 6 7 7 5 6 5 4 3 3 4 4 4 4 3 3 3 3
3 3 3 3 4 6 4 1 2 4 2 1 1 2 2 1 1 1 2 2 2 2 3 5 5 5 5 6 7 7 6 6 4 4 3 3 3 4 3 3 3 3 4 4
2 4 4 5 6 3 1 1 1 1 0 1 1 2 1 1 1 1 2 3 3 3 3 5 6 5 5 6 7 7 6 5 5 4 4 3 2 2 3 4 4 3 3 3
4 2 1 2 4 4 3 3 3 2 2 3 2 2 2 2 2 2 2 3 3 2 3 4 5 5 5 5 6 6 5 5 6 5 4 3 3 2 2 3 3 4 4 4
4 2 1 3 5 4 4 3 4 4 4 4 3 3 3 3 3 4 3 4 4 3 3 4 5 6 6 6 5 5 5 6 6 6 5 4 4 4 3 2 3 4 5 6
3 4 4 6 6 4 7 7 5 4 4 4 4 5 4 3 4 4 4 4 4 4 3 3 4 4 5 5 5 5 5 6 7 5 5 4 4 4 3 2 1 2 2 4
Wind_Direction
348 97 213 219 206 201 195 211 238 247 204 161 188 216 219 197 188 186 182 181 185 198 199 171 156 147 138 140 137 133 126 128 124 113 109 101 94 60 51 71 97 107 112 114
43 243 237 227 214 212 213 217 253 272 198 172 195 233 229 201 200 193 185 183 186 186 177 170 159 152 150 152 150 145 142 142 141 145 144 141 143 133 117 67 84 115 123 124
197 236 237 213 212 204 217 198 212 217 263 53 119 306 271 244 207 197 189 187 186 181 180 175 168 166 160 160 162 158 156 152 149 143 112 89 68 53 47 53 48 80 124 126
229 250 241 207 232 204 250 230 193 184 152 247 178 241 268 233 216 211 203 191 187 182 175 174 173 172 172 174 163 154 156 153 154 142 132 134 136 143 187 178 159 82 109 125
250 233 208 220 232 208 220 221 202 205 182 278 250 186 271 207 218 227 211 195 187 181 176 177 178 178 175 167 160 159 153 152 155 148 147 140 139 159 157 123 112 86 79 118
250 253 209 213 239 201 166 54 27 46 77 269 240 188 252 222 214 212 206 192 187 183 175 176 172 161 160 159 155 156 152 155 155 146 148 150 153 151 140 137 142 140 95 79
302 292 261 191 269 339 92 88 25 353 350 258 253 188 244 239 213 192 188 187 183 177 171 169 162 161 162 159 156 154 153 156 158 151 156 160 161 159 165 167 167 163 151 146
238 277 263 216 186 196 186 149 162 201 230 274 309 221 257 252 190 173 171 166 166 171 174 174 172 171 172 169 166 161 162 166 170 165 173 170 164 162 172 176 174 176 179 181
199 261 279 238 195 158 168 191 174 154 212 249 271 276 306 9 124 145 155 157 171 176 176 176 175 175 175 175 176 173 171 173 181 180 175 170 164 163 171 173 170 174 181 173
167 258 279 275 4 284 176 168 110 135 177 242 274 244 229 216 202 179 171 175 179 174 171 170 171 176 179 180 174 168 170 178 182 179 182 179 175 168 167 159 163 171 174 159
126 186 299 328 215 218 197 158 130 146 171 170 232 258 234 202 187 180 185 183 176 173 174 174 173 174 171 165 163 165 167 169 175 177 176 173 180 173 162 160 167 167 160 159
118 130 257 266 270 224 186 178 149 165 229 185 192 263 296 184 171 165 166 170 173 172 173 170 167 163 159 160 162 165 166 170 182 178 169 174 173 164 160 165 170 159 155 159
103 104 19 333 327 339 253 214 170 152 141 172 189 254 323 122 137 148 147 148 151 152 156 160 159 162 168 170 170 169 170 176 180 168 160 159 159 163 170 173 166 157 155 155
116 135 183 214 235 245 257 254 208 148 177 217 220 225 261 193 162 158 154 151 148 148 148 148 154 163 169 173 173 173 179 178 168 159 159 161 165 166 166 163 159 158 154 148
95 181 229 244 253 248 251 251 232 209 204 205 224 212 223 210 190 175 162 150 143 142 148 158 161 161 160 158 160 162 163 163 160 150 155 168 164 153 141 141 150 148 144 143
70 187 296 284 263 263 274 269 245 229 216 210 210 236 237 202 162 153 161 157 157 163 168 170 165 162 165 165 164 153 159 161 147 153 165 161 149 143 140 145 146 141 138 135
230 132 42 270 291 325 275 254 232 221 218 192 216 233 195 151 169 175 175 173 174 172 174 177 177 180 181 181 171 163 165 155 149 154 155 149 149 153 163 153 142 150 155 144
175 152 164 253 356 242 252 276 240 191 257 201 186 187 175 176 184 175 161 169 181 181 180 185 184 183 183 174 164 159 149 140 149 159 159 160 154 156 158 149 156 169 163 158
177 160 163 169 225 270 293 291 263 204 278 316 147 152 147 104 81 31 173 173 187 190 191 188 186 179 174 168 162 147 144 144 140 167 175 178 173 165 157 159 178 177 162 160
131 134 148 165 195 239 264 287 298 112 263 315 138 146 143 107 129 248 242 202 193 192 185 180 169 160 165 171 159 150 155 155 171 187 194 188 178 173 177 182 180 169 161 169
89 135 182 194 216 255 278 298 31 140 250 291 178 152 157 190 214 225 205 196 188 185 188 175 162 167 179 175 162 163 170 187 198 192 185 183 187 186 187 183 174 162 161 153
198 187 201 175 202 247 293 43 147 232 269 241 206 181 178 239 269 180 185 195 186 181 181 170 167 179 181 172 167 173 193 202 186 173 175 187 195 195 187 175 180 173 162 158
212 201 202 198 217 252 312 203 276 106 343 282 249 270 195 189 242 212 202 199 203 192 187 177 170 178 184 180 175 183 203 186 168 168 184 194 194 191 179 179 183 176 175 176
298 344 135 271 279 310 333 6 14 14 338 291 263 252 243 224 234 220 197 205 205 199 198 183 170 177 193 193 187 192 192 174 169 178 188 190 187 188 183 182 183 181 188 192
260 310 283 266 283 322 325 335 337 340 338 323 309 291 250 218 230 219 206 208 205 204 200 179 178 188 199 197 196 195 184 174 181 188 189 191 196 191 188 192 202 201 210 204
225 210 218 247 256 252 277 288 303 318 314 310 309 308 288 233 221 214 208 207 201 202 200 189 190 191 197 195 203 203 192 183 184 193 197 196 194 192 186 186 232 263 221 217
Height
1515 1521 1525 1522 1520 1522 1523 1527 1529 1524 1518 1522 1526 1525 1523 1523 1524 1524 1525 1526 1528 1529 1531 1532 1533 1534 1536 1537 1538 1538 1538 1539 1540 1540 1540 1541 1541 1542 1542 1542 1542 1542 1542 1542
1521 1523 1515 1513 1514 1517 1521 1526 1527 1522 1517 1520 1525 1525 1521 1521 1521 1521 1523 1524 1526 1528 1529 1531 1532 1533 1534 1536 1537 1538 1538 1539 1539 1540 1540 1541 1541 1542 1542 1543 1543 1543 1543 1543
1521 1516 1510 1511 1514 1517 1519 1523 1523 1524 1520 1520 1525 1530 1524 1520 1520 1521 1521 1522 1523 1525 1527 1529 1530 1532 1533 1534 1535 1536 1537 1538 1539 1540 1540 1541 1542 1542 1543 1543 1543 1543 1544 1544
1515 1510 1510 1512 1514 1515 1522 1514 1515 1519 1526 1532 1528 1542 1528 1521 1520 1519 1519 1520 1521 1523 1525 1526 1528 1530 1531 1533 1534 1536 1537 1538 1539 1539 1540 1540 1541 1542 1542 1543 1543 1544 1544 1544
1515 1509 1510 1513 1512 1511 1515 1510 1513 1516 1523 1531 1529 1538 1532 1521 1522 1518 1517 1517 1519 1521 1523 1524 1526 1528 1530 1532 1533 1535 1536 1537 1538 1539 1540 1540 1541 1542 1542 1543 1544 1544 1544 1545
1510 1506 1507 1507 1506 1507 1508 1513 1516 1521 1529 1540 1530 1536 1533 1523 1517 1514 1514 1515 1517 1519 1521 1523 1525 1527 1528 1531 1532 1534 1535 1536 1537 1538 1539 1540 1541 1541 1542 1543 1543 1544 1544 1545
1515 1508 1505 1504 1509 1509 1511 1526 1541 1542 1546 1543 1526 1529 1527 1512 1508 1509 1510 1512 1514 1517 1519 1521 1523 1525 1527 1529 1531 1532 1534 1535 1536 1537 1538 1539 1540 1541 1541 1542 1543 1543 1544 1544
1525 1523 1507 1504 1507 1512 1513 1522 1542 1549 1549 1541 1527 1529 1520 1507 1505 1506 1508 1510 1513 1515 1516 1518 1521 1523 1525 1527 1529 1531 1532 1534 1535 1537 1538 1539 1539 1540 1541 1542 1542 1543 1543 1544
1524 1521 1505 1501 1501 1505 1513 1520 1519 1534 1536 1542 1534 1524 1514 1507 1506 1507 1508 1510 1511 1513 1515 1517 1519 1522 1524 1526 1527 1529 1531 1532 1534 1535 1536 1537 1538 1539 1540 1541 1542 1542 1543 1543
1515 1520 1509 1503 1502 1503 1506 1511 1524 1532 1541 1546 1536 1529 1524 1512 1509 1508 1508 1509 1510 1512 1513 1515 1518 1520 1522 1524 1526 1528 1530 1531 1532 1534 1535 1536 1537 1538 1539 1540 1540 1541 1542 1543
1511 1519 1515 1508 1508 1509 1509 1511 1518 1528 1531 1541 1543 1532 1507 1505 1504 1506 1507 1507 1508 1510 1512 1514 1516 1518 1521 1523 1525 1526 1528 1529 1530 1532 1533 1534 1535 1537 1537 1538 1539 1540 1541 1542
1512 1519 1523 1513 1504 1501 1504 1508 1516 1528 1531 1531 1536 1529 1501 1501 1502 1503 1505 1507 1508 1509 1511 1513 1515 1517 1519 1521 1523 1524 1526 1527 1528 1530 1531 1532 1534 1535 1536 1537 1538 1539 1540 1541
1511 1520 1528 1523 1516 1507 1505 1505 1508 1515 1524 1530 1534 1525 1503 1502 1502 1503 1505 1506 1508 1509 1511 1513 1514 1516 1518 1519 1521 1523 1524 1525 1527 1528 1529 1530 1531 1533 1534 1535 1537 1538 1538 1539
1508 1517 1525 1527 1520 1511 1509 1505 1505 1513 1524 1526 1521 1516 1507 1504 1504 1504 1505 1506 1507 1509 1510 1512 1514 1515 1517 1518 1520 1521 1522 1524 1525 1526 1527 1528 1529 1531 1532 1533 1535 1536 1537 1538
1508 1517 1514 1512 1507 1506 1505 1504 1503 1507 1511 1516 1511 1509 1505 1502 1501 1502 1504 1505 1507 1508 1510 1511 1512 1514 1516 1517 1519 1520 1521 1522 1523 1524 1525 1526 1528 1529 1531 1531 1533 1534 1535 1536
1510 1515 1513 1511 1504 1504 1504 1501 1500 1500 1502 1504 1504 1505 1498 1498 1500 1501 1503 1504 1506 1507 1508 1510 1511 1512 1514 1515 1517 1518 1519 1520 1522 1523 1524 1525 1526 1528 1529 1530 1531 1532 1533 1534
1513 1515 1518 1519 1508 1505 1510 1501 1498 1498 1496 1498 1503 1501 1497 1498 1499 1499 1501 1502 1504 1506 1507 1508 1509 1511 1512 1513 1515 1516 1517 1519 1520 1521 1522 1523 1524 1525 1526 1528 1529 1530 1531 1532
1511 1514 1519 1519 1514 1518 1506 1494 1493 1495 1494 1494 1494 1495 1494 1495 1496 1497 1499 1500 1502 1504 1505 1506 1508 1509 1510 1512 1513 1515 1516 1517 1518 1519 1520 1521 1522 1523 1524 1525 1526 1527 1529 1530
1502 1510 1518 1521 1521 1514 1502 1494 1493 1495 1497 1494 1493 1494 1494 1495 1496 1498 1499 1500 1501 1502 1503 1504 1505 1507 1508 1510 1511 1513 1514 1515 1515 1516 1517 1519 1520 1521 1522 1523 1523 1525 1526 1527
1501 1505 1514 1519 1519 1518 1504 1492 1489 1493 1500 1494 1492 1493 1494 1495 1501 1499 1497 1498 1499 1500 1501 1502 1503 1505 1506 1507 1509 1510 1511 1512 1513 1514 1515 1517 1518 1518 1519 1520 1521 1522 1523 1524
1507 1510 1514 1516 1517 1509 1498 1491 1490 1502 1502 1494 1492 1492 1493 1494 1495 1495 1495 1496 1497 1498 1499 1500 1501 1502 1503 1504 1506 1507 1508 1509 1511 1512 1513 1514 1515 1516 1517 1517 1518 1519 1520 1521
1508 1511 1513 1514 1516 1512 1494 1492 1496 1496 1492 1492 1492 1491 1491 1491 1491 1492 1492 1493 1494 1495 1496 1497 1498 1499 1500 1502 1503 1504 1505 1507 1509 1510 1510 1511 1512 1513 1513 1514 1515 1516 1517 1518
1506 1505 1505 1505 1504 1496 1492 1492 1492 1492 1492 1491 1491 1491 1490 1490 1490 1490 1490 1491 1491 1492 1493 1495 1496 1497 1498 1499 1500 1501 1502 1504 1506 1507 1508 1508 1509 1510 1510 1511 1512 1513 1514 1514
1503 1500 1501 1501 1496 1494 1492 1491 1491 1491 1490 1489 1489 1488 1488 1487 1487 1487 1488 1488 1489 1490 1491 1492 1493 1494 1495 1496 1497 1498 1500 1501 1502 1503 1504 1505 1506 1506 1507 1508 1508 1509 1510 1511
1502 1500 1501 1500 1496 1493 1491 1491 1490 1489 1488 1487 1486 1485 1484 1484 1484 1484 1484 1485 1486 1487 1488 1489 1490 1491 1491 1492 1493 1495 1496 1498 1499 1500 1501 1502 1502 1503 1503 1504 1505 1505 1506 1507
1498 1499 1500 1497 1493 1493 1490 1489 1488 1486 1485 1484 1483 1481 1481 1481 1480 1480 1481 1482 1483 1483 1484 1485 1486 1487 1488 1489 1490 1491 1493 1494 1495 1496 1497 1498 1499 1499 1500 1500 1501 1502 1503 1504